This is the latest recevied weather packets stored in our database for station/object KE0PRS. If no packets are shown the sender has not sent any weather packets the latest 10 day(s).
| Time | Temp. | Humidity | Pressure | Rain* | Wind** | Luminosity | Snow |
|---|---|---|---|---|---|---|---|
| 1787592685 | 31.67° C | 48% | 1015 hPa | 0 mm | - | 558 W/m² | - |
| 1787592384 | 31.11° C | 49% | 1015.2 hPa | 0 mm | - | 423 W/m² | - |
| 1787592080 | 30.56° C | 49% | 1015.2 hPa | 0 mm | - | 965 W/m² | - |
| 1787591775 | 29.44° C | 51% | 1015.5 hPa | 0 mm | - | 592 W/m² | - |
| 1787591470 | 29.44° C | 52% | 1015.2 hPa | 0 mm | - | 387 W/m² | - |
| 1787591167 | 29.44° C | 52% | 1015.3 hPa | 0 mm | - | 396 W/m² | - |
| 1787590863 | 30° C | 52% | 1015.3 hPa | 0 mm | - | 378 W/m² | - |
| 1787590557 | 28.89° C | 52% | 1015.2 hPa | 0 mm | - | 381 W/m² | - |
| 1787590252 | 28.89° C | 53% | 1015.5 hPa | 0 mm | - | 371 W/m² | - |
| 1787589948 | 28.33° C | 54% | 1015.5 hPa | 0 mm | - | 373 W/m² | - |
| 1787589644 | 27.78° C | 54% | 1015.5 hPa | 0 mm | - | 371 W/m² | - |
| 1787589343 | 27.78° C | 56% | 1015.3 hPa | 0 mm | - | 344 W/m² | - |
| 1787589039 | 27.78° C | 55% | 1015.5 hPa | 0 mm | - | 321 W/m² | - |
| 1787588735 | 27.78° C | 56% | 1015.7 hPa | 0 mm | - | 310 W/m² | - |
| 1787588432 | 27.22° C | 56% | 1015.6 hPa | 0 mm | - | 368 W/m² | - |
| 1787588131 | 26.67° C | 57% | 1015.9 hPa | 0 mm | - | 364 W/m² | - |
| 1787587826 | 26.67° C | 58% | 1015.7 hPa | 0 mm | - | 335 W/m² | - |
| 1787587526 | 26.67° C | 57% | 1015.8 hPa | 0 mm | - | 293 W/m² | - |
| 1787587226 | 27.22° C | 56% | 1015.8 hPa | 0 mm | - | 312 W/m² | - |
| 1787586925 | 27.22° C | 56% | 1015.8 hPa | 0 mm | - | 297 W/m² | - |
| 1787586620 | 27.22° C | 57% | 1015.8 hPa | 0 mm | - | 309 W/m² | - |
| 1787586315 | 27.22° C | 54% | 1015.6 hPa | 0 mm | - | 201 W/m² | - |
| 1787586012 | 27.22° C | 55% | 1015.8 hPa | 0 mm | - | 240 W/m² | - |
| 1787585707 | 27.22° C | 55% | 1015.6 hPa | 0 mm | - | 468 W/m² | - |
| 1787585402 | 26.67° C | 56% | 1015.7 hPa | 0 mm | - | 307 W/m² | - |
* Rain latest hour (hover to see other rain measurements)
** Current wind speed in m/s (hover to see current wind gust speed)